GW2021 Weather Reports


time (UTC)temp
C
wind
direction
speed
KPH
gust
KPH
rain 1hr
cm
rain 24hr
cm
rain mn
cm
humidity
%
barometer
mb
20260507071333 11 157 0.0 0.0 0.00 0.00 0.00 87 1011.5
20260507070336 11 157 0.0 0.0 0.00 0.00 0.00 87 1011.6
20260507065434 11 157 0.0 0.0 0.00 0.00 0.00 87 1011.6
20260507064434 11 157 0.0 0.0 0.00 0.00 0.00 87 1011.3
20260507063436 11 157 0.0 0.0 0.00 0.00 0.00 87 1011.3
20260507061536 11 157 0.0 0.0 0.00 0.00 0.00 86 1011.6
20260507060536 11 157 0.0 0.0 0.00 0.00 0.00 86 1011.4
20260507055634 11 157 0.0 0.0 0.00 0.00 0.00 85 1011.4
20260507054635 11 157 0.0 0.0 0.00 0.00 0.00 85 1011.5
20260507053634 11 157 0.0 0.0 0.00 0.00 0.00 84 1011.2
20260507052635 11 157 0.0 0.0 0.00 0.00 0.00 83 1011.0
20260507051733 11 157 0.0 0.0 0.00 0.00 0.00 83 1011.5
20260507045735 12 157 0.0 0.0 0.00 0.00 0.00 79 1011.7
20260507044736 12 157 0.0 0.0 0.00 0.00 0.00 78 1011.7
20260507043835 12 157 0.0 0.0 0.00 0.00 0.00 81 1011.4
20260507042835 12 157 0.0 0.0 0.00 0.00 0.00 81 1011.2
20260507041837 12 157 0.0 0.0 0.00 0.00 0.00 80 1011.3
20260507040935 12 157 0.0 0.0 0.00 0.00 0.00 78 1011.2
20260507040027 13 157 0.0 0.0 0.00 0.00 0.00 76 1011.0
20260507034023 13 157 0.0 0.0 0.00 0.00 0.00 69 1010.9
20260507033120 13 157 0.0 0.0 0.00 0.00 0.00 69 1011.0
20260507032122 13 157 0.0 0.0 0.00 0.00 0.00 70 1011.2
20260507031220 13 157 0.0 0.0 0.00 0.00 0.00 70 1011.0
20260507030222 13 157 0.0 0.0 0.00 0.00 0.00 72 1011.0
20260507025221 13 157 0.0 0.0 0.00 0.00 0.00 72 1010.5
20260507024320 14 157 0.0 0.0 0.00 0.00 0.00 73 1010.5
20260507023322 14 157 0.0 0.0 0.00 0.00 0.00 73 1011.0
20260507022322 15 157 0.0 0.0 0.00 0.00 0.00 74 1010.6
20260507020320 15 157 0.0 0.0 0.00 0.00 0.00 75 1010.5
20260507015321 15 157 0.0 0.0 0.00 0.00 0.00 76 1010.6
20260507014323 15 157 0.0 0.0 0.00 0.00 0.00 79 1010.5
20260507013322 15 157 0.0 0.0 0.00 0.00 0.00 77 1010.5
20260507012321 15 157 0.0 0.0 0.00 0.00 0.00 77 1010.5
20260507011322 16 157 0.0 0.0 0.00 0.00 0.00 78 1010.8
20260507010322 16 157 0.0 0.0 0.00 0.00 0.00 79 1010.7
20260507004420 16 157 0.0 0.0 0.00 0.00 0.00 79 1010.4
20260507002421 16 157 0.0 0.0 0.00 0.00 0.00 80 1009.9
20260507001422 17 157 0.0 0.0 0.00 0.00 0.00 82 1009.9
20260507000520 17 157 0.0 0.0 0.00 0.00 0.00 82 1009.5
20260506235522 17 157 0.0 0.0 0.00 0.00 0.00 83 1009.0
20260506234620 17 157 0.0 0.0 0.00 0.00 0.00 83 1008.8
20260506233621 17 157 0.0 0.0 0.00 0.00 0.00 83 1008.9
20260506232621 17 157 0.0 0.0 0.00 0.00 0.00 82 1008.6
20260506231720 17 157 0.0 0.0 0.00 0.00 0.00 82 1008.5
20260506230723 17 157 0.0 0.0 0.00 0.00 0.00 82 1008.5
20260506225721 18 157 0.0 0.0 0.00 0.00 0.00 81 1008.6
20260506224721 18 157 0.0 0.0 0.00 0.00 0.00 80 1008.3
20260506223721 18 157 0.0 0.0 0.00 0.00 0.00 80 1008.3
20260506222722 18 157 0.0 0.0 0.00 0.00 0.00 80 1008.2
20260506221722 18 157 0.0 0.0 0.00 0.00 0.00 79 1008.3
20260506220821 18 157 0.0 0.0 0.00 0.00 0.00 78 1008.2
20260506214920 18 157 0.0 0.0 0.00 0.00 0.00 79 1007.8
20260506213921 18 157 0.0 0.0 0.00 0.00 0.00 79 1007.8
20260506212922 18 157 0.0 0.0 0.00 0.00 0.00 78 1007.5
20260506211922 18 157 0.0 0.0 0.00 0.00 0.00 77 1007.5
20260506210922 19 157 0.0 0.0 0.00 0.00 0.00 76 1007.6
20260506210021 19 157 0.0 0.0 0.00 0.00 0.00 76 1007.3
20260506205021 19 157 0.0 0.0 0.00 0.00 0.00 77 1007.2
20260506204120 19 157 0.0 0.0 0.00 0.00 0.00 78 1007.3
20260506202123 18 157 0.0 0.0 0.00 0.00 0.00 80 1007.3
20260506201220 18 157 0.0 0.0 0.00 0.00 0.00 81 1007.4
20260506200220 18 157 0.0 0.0 0.00 0.00 0.00 81 1007.6
20260506195221 18 157 0.0 0.0 0.00 0.00 0.00 82 1007.5
20260506194220 18 157 0.0 0.0 0.00 0.00 0.00 81 1007.4
20260506193222 18 157 0.0 0.0 0.00 0.00 0.00 81 1007.4
20260506192320 18 157 0.0 0.0 0.00 0.00 0.00 81 1007.6
20260506191321 18 157 0.0 0.0 0.00 0.00 0.00 80 1007.7
20260506190320 18 157 0.0 0.0 0.00 0.00 0.00 80 1007.8
20260506185321 18 157 0.0 0.0 0.00 0.00 0.00 80 1007.8
20260506184337 18 157 0.0 0.0 0.00 0.00 0.00 80 1007.8
20260506183422 17 157 0.0 0.0 0.00 0.00 0.00 81 1007.9
20260506181420 17 157 0.0 0.0 0.00 0.00 0.00 81 1008.0
20260506180421 17 157 0.0 0.0 0.00 0.00 0.00 81 1007.9
20260506175420 17 157 0.0 0.0 0.00 0.00 0.00 80 1008.1
20260506173422 17 157 0.0 0.0 0.00 0.00 0.00 82 1008.0
20260506173319 17 157 0.0 0.0 0.00 0.00 0.00 82 1008.1
20260506172322 16 157 0.0 0.0 0.00 0.00 0.00 82 1008.1
20260506171420 16 157 0.0 0.0 0.00 0.00 0.00 82 1008.0
20260506170519 16 157 0.0 0.0 0.00 0.00 0.00 83 1008.1
20260506164522 16 157 0.0 0.0 0.00 0.00 0.00 83 1008.0
20260506162521 16 157 0.0 0.0 0.00 0.00 0.00 85 1008.0
20260506161520 16 157 0.0 0.0 0.00 0.00 0.00 85 1008.1
20260506160521 16 157 0.0 0.0 0.00 0.00 0.00 85 1008.2
20260506155521 16 157 0.0 0.0 0.00 0.00 0.00 85 1008.4
20260506154522 16 157 0.0 0.0 0.00 0.00 0.00 85 1008.3
20260506153619 16 157 0.0 0.0 0.00 0.00 0.00 86 1008.0
20260506152719 16 157 0.0 0.0 0.00 0.00 0.00 87 1008.1
20260506152622 16 157 0.0 0.0 0.00 0.00 0.00 87 1008.1
20260506151620 16 157 0.0 0.0 0.00 0.00 0.00 87 1008.0
20260506150624 16 157 0.0 0.0 0.00 0.00 0.00 87 1008.0
20260506144820 15 157 0.0 0.0 0.00 0.00 0.00 86 1008.9
20260506143820 15 157 0.0 0.0 0.00 0.00 0.00 85 1009.1
20260506142821 16 157 0.0 0.0 0.00 0.00 0.00 85 1008.9
20260506140821 16 157 0.0 0.0 0.00 0.00 0.00 85 1008.7
20260506135920 16 157 0.0 0.0 0.00 0.00 0.00 85 1008.4
20260506134922 15 157 0.0 0.0 0.00 0.00 0.00 85 1008.5
20260506134019 15 157 0.0 0.0 0.00 0.00 0.00 85 1008.3
20260506133021 15 157 0.0 0.0 0.00 0.00 0.00 84 1008.5
20260506132020 15 157 0.0 0.0 0.00 0.00 0.00 83 1008.5
20260506131921 15 157 0.0 0.0 0.00 0.00 0.00 83 1008.5
20260506130920 16 157 0.0 0.0 0.00 0.00 0.00 82 1008.6
20260506125922 16 157 0.0 0.0 0.00 0.00 0.00 82 1008.6
20260506125019 16 157 0.0 0.0 0.00 0.00 0.00 81 1008.5
20260506124022 16 157 0.0 0.0 0.00 0.00 0.00 79 1008.6
20260506123020 16 157 0.0 0.0 0.00 0.00 0.00 79 1008.6
20260506115223 17 157 0.0 0.0 0.00 0.00 0.00 74 1009.1
20260506114220 17 157 0.0 0.0 0.00 0.00 0.00 73 1009.0
20260506112321 17 157 0.0 0.0 0.00 0.00 0.00 69 1008.5
20260506110321 17 157 0.0 0.0 0.00 0.00 0.00 67 1008.1
20260506105320 17 157 0.0 0.0 0.00 0.00 0.00 66 1008.1
20260506104321 17 157 0.0 0.0 0.00 0.00 0.00 65 1007.9
20260506103320 18 157 0.0 0.0 0.00 0.00 0.00 64 1007.6
20260506102321 18 157 0.0 0.0 0.00 0.00 0.00 62 1007.5
20260506101419 18 157 0.0 0.0 0.00 0.00 0.00 62 1007.6
20260506100423 18 157 0.0 0.0 0.00 0.00 0.00 61 1007.8
20260506095422 18 157 0.0 0.0 0.00 0.00 0.00 61 1007.6
20260506094519 18 157 0.0 0.0 0.00 0.00 0.00 61 1007.5
20260506092619 18 157 0.0 0.0 0.00 0.00 0.00 60 1007.5
20260506091620 18 157 0.0 0.0 0.00 0.00 0.00 59 1007.7
20260506090620 18 157 0.0 0.0 0.00 0.00 0.00 59 1007.7
20260506085622 18 157 0.0 0.0 0.00 0.00 0.00 59 1008.0
20260506083622 18 157 0.0 0.0 0.00 0.00 0.00 58 1008.1
20260506082620 18 157 0.0 0.0 0.00 0.00 0.00 58 1007.8
20260506081623 18 157 0.0 0.0 0.00 0.00 0.00 57 1007.9
20260506080619 18 157 0.0 0.0 0.00 0.00 0.00 57 1008.0